Location: Newark
(44.1667°N, 8.2500°E)
Time: 18:53:03
(UTC+00:00)

S-56A Canister/Altair - Pass Details

Date: 14 December 2019
Orbit: 634 x 2498 km, 38.9° (Epoch: 28 January)

Event Time Altitude Azimuth Distance (km) Brightness Sun altitude
Rises 11:50:04 0° 271° (W) 5,948 12.1 22.3°
Reaches altitude 10° 11:53:49 10° 269° (W) 5,055 11.9 22.2°
Maximum altitude 12:08:43 68° 192° (SSW) 2,590 11.0 21.8°
Drops below altitude 10° 12:22:04 10° 113° (ESE) 4,585 11.7 21.2°
Sets 12:25:17 0° 111° (ESE) 5,387 11.9 21.1°
